SCP
2 2 1 1 1 1 1 0 0 0 0 1 1 1 1 1 1 0 0 0 0 0 0 0 0 0 0 0 0 0 0 0 0 0 0 0 0 0 0 0 0 0 0
2 2 1 1 1 1 1 1 0 0 0 0 1 1 1 1 1 0 0 0 0 0 0 0 0 0 0 0 0 0 0 0 0 0 0 0 0 0 0 0 0 0 0
2 1 1 1 1 1 1 1 0 0 0 0 0 0 0 0 0 0 0 0 0 1 0 0 0 0 0 0 0 0 0 0 0 0 0 0 0 0 0 0 0 0 0
1 1 1 2 2 1 1 1 1 0 0 0 0 0 1 1 1 0 0 0 0 0 0 0 0 0 0 0 0 0 0 0 0 0 0 0 0 0 0 0 0 0 0
1 1 1 1 2 1 1 1 1 0 0 0 0 0 1 1 1 0 0 0 0 0 0 0 0 0 0 0 0 0 0 0 0 0 0 0 0 0 0 0 0 0 0
1 1 1 1 1 1 1 1 1 1 1 1 1 1 1 1 0 0 0 0 0 0 0 0 0 0 0 0 0 0 0 0 0 0 0 0 0 0 0 0 0 0 0
2 2 2 2 1 1 1 1 1 1 1 1 1 1 1 0 0 0 0 0 0 0 0 0 0 0 0 0 0 0 0 0 0 0 0 0 0 0 0 0 0 0 0
4 3 3 2 2 2 1 1 1 1 1 1 0 0 0 0 0 0 0 0 0 0 0 0 0 0 0 0 0 0 0 0 0 0 0 0 0 0 0 0 0 0 0
7 6 4 3 2 2 2 2 1 1 0 0 0 0 0 0 0 0 0 0 0 0 0 0 0 0 0 0 0 0 0 0 0 0 0 0 0 0 0 0 0 0 0
8 7 4 3 2 2 2 1 1 0 0 0 0 0 0 0 0 0 0 0 0 0 0 0 0 0 0 0 0 0 0 0 0 0 0 0 0 0 0 0 0 0 0
6 5 3 2 2 2 1 1 1 0 0 0 0 0 0 0 0 0 0 0 0 0 0 0 0 0 0 0 0 0 0 0 0 0 0 0 0 0 0 0 0 0 0
3 3 2 2 2 1 1 1 0 0 0 0 0 0 0 0 0 0 0 0 0 0 0 0 0 0 0 0 0 0 0 0 0 0 0 0 0 0 0 0 0 0 0
2 2 1 1 1 1 0 0 0 0 0 0 0 0 0 0 0 0 0 0 0 0 0 0 0 0 0 0 0 0 0 0 0 0 0 0 0 0 0 0 0 0 0
1 1 1 0 0 0 0 0 0 0 0 0 0 0 0 0 0 0 0 0 0 0 0 0 0 0 0 0 0 0 0 0 0 0 0 0 0 0 0 0 0 0 0
0 0 0 0 0 0 0 0 0 0 0 0 0 0 0 0 0 0 0 0 0 0 0 0 0 0 0 0 0 0 0 0 0 0 0 0 0 0 0 0 0 0 0
0 0 0 0 0 0 0 0 0 0 0 0 0 0 0 0 0 0 0 0 0 0 0 0 0 0 0 0 0 0 0 0 0 0 0 0 0 0 0 0 0 0 0
0 0 0 0 0 0 0 0 0 0 0 0 0 0 0 0 0 0 0 0 0 0 0 0 0 0 0 0 0 0 0 0 0 0 0 0 0 0 0 0 0 0 0
0 0 0 0 0 0 0 0 0 0 0 0 0 0 0 0 0 0 0 0 0 0 0 0 0 0 0 0 0 0 0 0 0 0 0 0 0 0 0 0 0 0 0
0 0 0 0 0 0 0 0 0 0 0 0 0 0 0 0 0 0 0 0 0 0 0 0 0 0 0 0 0 0 0 0 0 0 0 0 0 0 0 0 0 0 0
0 0 0 0 0 0 0 0 0 0 0 0 0 0 0 0 0 0 0 0 0 0 0 0 0 0 0 0 0 0 0 0 0 0 0 0 0 0 0 0 0 0 0
0 0 0 0 0 0 0 0 0 0 0 0 0 0 0 0 0 0 0 0 0 0 0 0 0 0 0 0 0 0 0 0 0 0 0 0 0 0 0 0 0 0 0
0 0 0 0 0 0 0 0 0 0 0 0 0 0 0 0 0 0 0 0 0 0 0 0 0 0 0 0 0 0 0 0 0 0 0 0 0 0 0 0 0 0 0
0 0 0 0 0 0 0 0 0 0 0 0 0 0 0 0 0 0 0 0 0 0 0 0 0 0 0 0 0 0 0 0 0 0 0 0 0 0 0 0 0 0 0
0 0 0 0 0 0 0 0 0 0 0 0 0 0 0 0 0 0 0 0 0 0 0 0 0 0 0 0 0 0 0 0 0 0 0 0 0 0 0 0 0 0 0
0 0 0 0 0 0 0 0 0 0 0 0 0 0 0 0 0 0 0 0 0 0 0 0 0 0 0 0 0 0 0 0 0 0 0 0 0 0 0 0 0 0 0
0 0 0 0 0 0 0 0 0 0 0 0 0 0 0 0 0 0 0 0 0 0 0 0 0 0 0 0 0 0 0 0 0 0 0 0 0 0 0 0 0 0 0
Wind_Speed
7 7 7 6 6 7 7 7 7 6 7 7 7 6 5 5 5 4 3 3 3 2 1 2 1 1 0 1 1 1 1 2 2 3 2 2 2 2 2 2 3 4 5
7 7 7 6 6 7 7 7 7 7 7 7 6 6 6 5 4 5 4 3 3 3 2 2 1 1 1 0 1 1 0 1 2 2 2 2 2 2 2 2 3 3 3
7 8 7 7 7 7 6 6 6 6 6 6 6 6 5 4 4 4 4 4 3 3 2 2 1 2 1 0 1 0 0 1 1 1 2 2 2 2 2 3 3 3 4
7 8 8 7 7 7 6 6 6 6 6 6 5 5 4 4 4 4 4 4 3 2 2 3 2 2 1 1 1 1 1 1 1 1 1 2 2 2 2 2 3 3 4
8 8 7 7 6 6 6 6 6 6 6 5 5 5 4 3 3 4 3 4 4 4 4 4 4 5 5 3 2 1 2 1 1 1 1 2 2 2 2 2 3 4 3
8 8 7 7 7 7 6 6 7 6 5 5 6 5 4 3 4 5 4 5 5 5 5 5 5 7 7 8 8 7 5 2 1 1 1 1 2 2 2 2 2 3 4
8 8 7 7 7 7 8 8 7 7 7 7 6 7 6 5 6 7 8 7 7 6 5 5 5 6 7 5 8 10 10 10 6 1 1 1 2 2 2 3 2 2 4
9 8 8 9 8 8 8 9 8 7 8 7 7 8 8 8 10 12 13 10 9 8 7 6 6 5 6 5 5 6 5 5 5 4 1 2 2 3 2 2 3 3 4
9 9 9 9 10 9 9 9 9 9 9 8 8 8 9 9 11 13 12 8 8 8 7 7 6 6 8 8 6 5 5 5 6 7 6 6 7 7 4 2 3 3 4
8 8 9 9 10 11 10 10 10 10 11 10 10 8 9 9 11 13 11 7 8 6 5 6 8 7 8 8 5 4 5 4 5 7 7 8 7 8 8 3 1 2 3
8 9 10 10 11 11 11 10 11 12 12 11 11 9 9 10 11 13 11 6 6 5 4 3 3 6 7 7 5 3 3 3 3 4 4 5 5 5 6 5 3 1 2
11 11 11 10 10 11 12 11 11 12 12 11 10 9 7 7 10 11 13 10 7 5 3 2 2 6 7 8 5 6 7 6 3 4 4 4 4 4 5 5 5 4 3
13 12 12 12 11 11 11 11 10 9 9 8 8 7 5 5 7 11 12 11 9 5 3 4 5 7 7 6 9 9 7 5 4 4 3 3 3 4 4 4 5 5 5
14 12 11 12 11 10 8 7 8 8 8 8 7 7 5 4 4 4 4 5 7 5 4 5 7 9 7 6 7 6 5 4 3 2 2 3 3 4 4 3 4 4 5
14 13 12 11 11 11 10 8 7 6 7 8 6 5 6 4 2 4 3 3 3 3 3 4 5 5 5 5 4 4 4 4 4 3 3 3 3 4 4 4 3 4 4
13 11 10 9 9 10 10 10 14 11 13 12 9 7 5 5 5 7 7 7 7 7 6 5 4 4 3 3 3 3 3 3 3 2 3 3 3 4 4 4 4 4 5
12 11 9 9 9 8 8 10 9 8 11 10 9 9 7 7 8 9 9 10 10 9 6 4 3 3 2 2 2 2 2 3 3 3 3 3 4 4 4 5 5 5 5
11 11 10 7 7 7 7 7 7 7 5 3 5 6 7 8 9 10 9 9 7 6 4 3 2 2 2 2 2 2 2 3 3 3 3 3 4 4 5 5 6 6 7
9 7 7 7 7 7 6 6 6 6 5 3 2 3 5 7 9 9 8 5 4 3 3 2 2 2 1 2 2 2 2 2 3 3 3 4 4 4 5 6 6 9 8
7 11 9 7 7 6 6 6 5 5 4 3 3 2 2 4 4 4 4 3 3 3 2 2 2 1 1 1 2 2 2 2 3 3 4 4 5 5 6 7 7 7 7
6 8 11 8 6 6 6 5 5 5 4 3 2 2 5 4 4 3 3 2 2 2 2 1 1 1 1 1 1 1 2 2 3 4 4 5 5 5 6 6 7 7 8
6 6 6 6 6 6 6 5 5 4 5 5 3 4 7 5 3 3 2 1 1 1 1 1 1 0 0 0 1 1 2 3 4 4 5 5 5 6 6 6 7 7 8
6 6 6 6 6 7 6 5 5 5 4 4 4 4 3 3 3 2 2 1 1 0 0 1 1 1 1 1 1 0 1 3 4 4 5 6 6 6 6 7 9 9 8
6 6 6 6 5 5 5 5 5 5 5 4 4 3 3 3 2 2 1 0 1 1 1 1 2 2 1 1 1 1 2 3 4 4 6 6 7 7 6 7 8 9 9
6 6 6 5 5 5 5 5 5 5 4 4 4 3 3 2 2 1 1 1 2 2 2 2 1 1 1 1 2 3 5 6 6 5 5 5 7 7 7 8 8 8 8
6 6 5 5 5 5 5 5 4 4 4 3 3 3 3 2 2 1 1 1 2 2 2 1 1 1 1 1 3 4 5 7 8 8 5 4 6 6 7 6 9 8 9
Wind_Direction
173 170 166 167 164 160 163 168 167 166 166 169 172 169 166 163 161 158 168 163 165 177 164 152 193 178 77 28 68 93 126 149 210 278 280 305 331 321 307 269 258 253 255
168 163 163 162 160 160 165 166 163 163 168 166 161 160 166 166 164 161 168 158 160 167 169 144 201 141 111 37 69 56 74 166 182 268 300 318 320 315 308 296 288 279 271
161 160 159 160 161 163 162 159 154 151 153 151 150 155 160 159 158 159 157 158 158 163 161 155 174 129 114 42 67 45 343 40 137 204 290 307 315 341 341 331 328 324 310
160 160 162 165 167 163 152 147 146 145 145 144 144 145 142 140 145 154 154 152 143 132 125 122 111 110 117 99 70 26 39 40 39 46 331 330 329 334 5 342 332 330 317
158 159 165 161 154 149 147 144 139 136 141 140 131 124 123 123 133 140 145 142 135 118 100 89 80 78 73 68 70 55 55 51 36 31 356 347 334 347 344 329 319 314 307
162 162 156 150 146 145 145 139 134 134 129 121 118 116 104 99 108 125 131 122 117 112 102 86 72 57 56 58 61 60 60 67 65 48 344 316 301 307 313 321 321 338 313
156 155 154 149 147 146 142 130 130 128 117 109 107 101 91 76 85 93 103 101 98 97 96 89 74 55 50 57 58 54 47 44 47 79 16 317 307 303 311 314 311 291 274
159 160 156 149 143 139 134 131 128 116 108 103 96 95 87 70 81 89 90 87 85 81 83 86 83 59 49 62 67 56 42 28 24 36 35 310 311 303 284 282 282 294 286
157 156 152 147 140 133 127 124 117 109 101 95 90 89 87 74 80 89 92 89 86 78 75 74 76 66 52 62 66 56 36 12 13 18 13 5 357 355 350 3 348 346 317
153 146 140 136 133 128 127 120 112 108 105 100 89 80 82 79 76 84 91 96 94 87 73 63 61 62 55 59 66 60 37 359 358 5 10 9 9 9 15 24 352 334 314
131 127 125 123 123 123 118 114 114 111 106 100 92 77 69 69 69 74 78 89 99 95 79 58 40 45 52 54 63 66 44 17 11 15 13 10 9 10 7 5 360 334 310
113 112 112 113 115 113 112 111 112 112 107 102 95 82 64 59 64 69 71 77 88 91 83 55 37 47 48 45 48 41 38 41 36 31 25 11 3 355 346 344 343 334 304
104 102 100 96 96 103 109 112 111 111 111 108 102 96 79 58 55 60 65 67 68 73 63 60 60 58 52 44 41 44 44 44 43 35 15 347 331 325 331 334 334 335 326
104 99 96 96 92 88 90 99 109 113 116 114 110 107 95 70 51 45 49 52 48 48 44 50 59 60 56 46 41 40 40 41 45 30 350 331 332 341 342 338 332 334 331
100 99 97 94 95 87 79 72 86 85 114 121 120 122 117 100 78 85 78 58 48 50 63 56 51 48 45 39 34 29 27 27 27 12 5 354 347 345 333 332 330 329 322
106 104 103 102 100 100 98 81 58 76 89 96 109 114 98 107 100 75 67 69 74 82 79 67 60 58 56 46 36 19 13 11 3 3 2 354 344 337 332 330 331 327 317
111 111 109 109 110 110 110 111 101 68 65 77 91 96 98 93 75 67 68 72 73 78 78 74 68 59 53 44 32 19 358 346 350 2 359 347 338 333 330 327 326 322 316
107 111 114 116 118 119 119 119 120 120 107 67 51 69 76 73 67 63 69 73 59 54 72 77 66 57 50 34 14 3 356 355 358 354 346 337 332 327 324 320 318 315 314
106 111 113 116 116 117 117 114 111 110 109 102 72 45 56 67 62 60 67 76 81 69 63 61 60 59 44 26 11 9 13 5 352 341 332 325 321 320 315 312 311 311 311
104 114 116 115 114 113 115 116 115 114 110 104 98 85 62 69 66 54 58 74 82 79 72 64 51 52 44 26 18 19 17 358 342 331 320 316 313 310 308 309 310 310 307
96 104 108 108 112 117 118 120 119 118 117 110 104 103 113 100 99 95 88 85 94 98 89 77 69 44 36 34 35 26 8 333 322 317 313 311 311 310 305 302 302 302 303
96 95 99 103 106 108 110 112 114 115 118 114 97 92 100 99 105 102 96 92 97 117 136 119 97 62 32 53 79 32 339 321 317 316 312 307 306 305 304 304 305 305 305
101 101 98 98 104 111 110 111 113 111 112 114 114 107 101 103 108 107 105 97 76 68 67 84 86 64 40 45 80 89 306 301 297 299 304 305 306 305 303 301 301 304 306
106 106 105 103 102 103 106 105 106 109 112 112 111 112 115 117 116 113 112 78 40 38 54 73 92 100 81 42 344 319 301 297 296 289 291 292 297 298 300 301 302 303 305
101 102 104 106 106 107 106 105 107 110 112 116 120 122 122 120 116 107 84 59 58 65 74 89 96 83 69 28 326 314 314 315 311 310 297 292 293 296 299 301 305 308 308
106 108 108 107 108 111 113 114 115 117 119 124 126 130 132 132 134 125 105 89 84 80 78 84 106 63 9 325 318 321 320 321 321 319 308 295 301 306 313 311 312 314 313